Weather History for KOLV - December, 2012

Change the Weather History Date:

Saturday, December 29, 2012

  Actual Average (KMEM) Record (KMEM)
Temperature  
Mean Temperature 28 °F 41 °F  
Max Temperature 33 °F 50 °F 72 °F (1889)
Min Temperature 24 °F 33 °F 3 °F (1880)
Degree Days  
Heating Degree Days 36 24  
Month to date heating degree days 619  
Since 1 July heating degree days 1118  
Cooling Degree Days 0 0  
Month to date cooling degree days 0  
Year to date cooling degree days 2256  
Moisture  
Dew Point 30 °F    
Average Humidity 94    
Maximum Humidity 100    
Minimum Humidity 80    
Precipitation  
Precipitation 0.00 in 0.16 in 3.05 in (1884)
Month to date precipitation 5.42  
Year to date precipitation 53.36  
Snow  
Snow 0.00 in 0.10 in 1.30 in (1915)
Month to date snowfall 0.2  
Since 1 July snowfall 0.2  
Snow Depth -    
Sea Level Pressure  
Sea Level Pressure 30.19 in    
Wind  
Wind Speed 11 mph (NW)    
Max Wind Speed 17 mph    
Max Gust Speed 23 mph    
Visibility 7 miles    
Events      
T = Trace of Precipitation, MM = Missing Value Source: NWS Daily Summary

Daily Weather History Graph

Daily Weather History Graph

Search for Another Location

Airport or City:

Trip Planner

Search our weather history database for the weather conditions in past years. The results will help you decide how hot, cold, wet, or windy it might be!

Date:

Astronomy

Dec. 29, 2012 Rise Set
Actual Time 7:06 AM CST 4:56 PM CST
Civil Twilight 6:38 AM CST 5:24 PM CST
Nautical Twilight 6:06 AM CST 5:56 PM CST
Astronomical Twilight 5:35 AM CST 6:27 PM CST
Moon 6:25 PM CST (12/29) 7:43 AM CST (12/29)
Length of Visible Light 10h 46m
Length of Day
9h 50m
Full, 98% of the Moon is Illuminated
Dec 29
Full
Jan 4
Last Quarter
Jan 11
New
Jan 18
First Quarter
Jan 26
Full

Hourly Weather History & Observations

Time (CST) Temp. Windchill Dew Point Humidity Pressure Visibility Wind Dir Wind Speed Gust Speed Precip Events Conditions
12:15 AM 33.8 °F 24.3 °F 33.8 °F 100% 29.95 in 8.0 mi WNW 13.8 mph - 0.00 in   Overcast
12:35 AM 33.8 °F 24.8 °F 33.8 °F 100% 29.95 in 9.0 mi NW 12.7 mph - 0.00 in   Overcast
12:55 AM 33.8 °F 24.8 °F 33.8 °F 100% 29.95 in 8.0 mi WNW 12.7 mph - 0.00 in   Overcast
1:15 AM 33.8 °F 23.5 °F 33.8 °F 100% 29.96 in 6.0 mi NW 16.1 mph 20.7 mph 0.00 in   Overcast
1:35 AM 33.8 °F 24.8 °F 33.8 °F 100% 29.96 in 8.0 mi NW 12.7 mph - 0.00 in   Overcast
1:55 AM 33.8 °F 25.3 °F 33.8 °F 100% 29.97 in 8.0 mi NW 11.5 mph 17.3 mph 0.00 in   Overcast
2:15 AM 33.8 °F 23.9 °F 33.8 °F 100% 29.98 in 7.0 mi WNW 15.0 mph - 0.00 in   Overcast
2:35 AM 33.8 °F 24.8 °F 33.8 °F 100% 29.99 in 7.0 mi NW 12.7 mph 18.4 mph 0.00 in   Overcast
2:55 AM 33.8 °F 24.8 °F 33.8 °F 100% 30.01 in 6.0 mi NW 12.7 mph - 0.00 in   Overcast
3:15 AM 33.8 °F 24.8 °F 33.8 °F 100% 30.01 in 7.0 mi NW 12.7 mph - 0.00 in   Overcast
3:35 AM 33.8 °F 25.3 °F 33.8 °F 100% 30.01 in 6.0 mi NW 11.5 mph - 0.00 in   Overcast
3:55 AM 33.8 °F 24.8 °F 33.8 °F 100% 30.01 in 5.0 mi NW 12.7 mph - 0.00 in   Overcast
4:15 AM 33.8 °F 25.3 °F 33.8 °F 100% 30.03 in 7.0 mi WNW 11.5 mph 18.4 mph 0.00 in   Overcast
4:35 AM 33.8 °F 23.5 °F 33.8 °F 100% 30.03 in 7.0 mi WNW 16.1 mph - 0.00 in   Overcast
4:55 AM 33.8 °F 25.3 °F 33.8 °F 100% 30.04 in 8.0 mi WNW 11.5 mph 17.3 mph 0.00 in   Overcast
5:15 AM 33.8 °F 26.4 °F 32.0 °F 93% 30.05 in 8.0 mi WNW 9.2 mph - 0.00 in   Overcast
5:35 AM 33.8 °F 25.3 °F 32.0 °F 93% 30.06 in 9.0 mi NW 11.5 mph 17.3 mph 0.00 in   Overcast
5:55 AM 32.0 °F 23.0 °F 32.0 °F 100% 30.07 in 9.0 mi WNW 11.5 mph - N/A   Overcast
6:55 AM 32.0 °F 21.6 °F 32.0 °F 100% 30.10 in 8.0 mi WNW 15.0 mph 21.9 mph N/A   Mostly Cloudy
8:55 AM 32.0 °F 22.5 °F 30.2 °F 93% 30.12 in 7.0 mi WNW 12.7 mph 19.6 mph N/A   Overcast
9:55 AM 32.0 °F 23.0 °F 28.4 °F 87% 30.19 in 7.0 mi NW 11.5 mph 20.7 mph N/A   Overcast
10:45 AM 32.0 °F 21.2 °F 28.4 °F 87% 30.21 in 8.0 mi WNW 16.1 mph 23.0 mph N/A   Overcast
11:45 AM 32.0 °F 21.6 °F 28.4 °F 87% 30.20 in 8.0 mi WNW 15.0 mph 20.7 mph N/A   Overcast
12:50 PM 32.0 °F 20.8 °F 26.6 °F 80% 30.21 in 8.0 mi NW 17.3 mph 23.0 mph N/A   Overcast
2:55 PM 32.0 °F 22.1 °F 26.6 °F 80% 30.27 in 8.0 mi NW 13.8 mph - N/A   Overcast
3:50 PM 32.0 °F 22.1 °F 26.6 °F 80% 30.29 in 9.0 mi NNW 13.8 mph - N/A   Mostly Cloudy
4:50 PM 32.0 °F 26.4 °F 26.6 °F 80% 30.31 in 10.0 mi NNW 5.8 mph - N/A   Mostly Cloudy
5:50 PM 32.0 °F 26.4 °F 26.6 °F 80% 30.35 in 8.0 mi NW 5.8 mph - N/A   Overcast
6:50 PM 30.2 °F 23.4 °F 26.6 °F 86% 30.36 in 10.0 mi NNW 6.9 mph - N/A   Scattered Clouds
8:15 PM 30.2 °F - 26.6 °F 86% 30.39 in 9.0 mi Calm Calm - 0.00 in   Clear
8:35 PM 30.2 °F - 26.6 °F 86% 30.40 in 8.0 mi Calm Calm - 0.00 in   Clear
8:55 PM 30.2 °F - 26.6 °F 86% 30.40 in 6.0 mi Calm Calm - 0.00 in   Clear
9:15 PM 28.4 °F - 26.6 °F 93% 30.41 in 7.0 mi Calm Calm - 0.00 in   Clear
9:35 PM 28.4 °F - 26.6 °F 93% 30.42 in 6.0 mi Calm Calm - 0.00 in   Clear
9:55 PM 28.4 °F - 26.6 °F 93% 30.42 in 5.0 mi Calm Calm - 0.00 in   Clear
10:15 PM 28.4 °F - 28.4 °F 100% 30.42 in 6.0 mi Calm Calm - 0.00 in   Clear
10:35 PM 26.6 °F - 26.6 °F 100% 30.42 in 7.0 mi Calm Calm - 0.00 in   Clear
10:55 PM 24.8 °F - 24.8 °F 100% 30.43 in 5.0 mi Calm Calm - 0.00 in   Clear
11:15 PM 24.8 °F - 24.8 °F 100% 30.43 in 5.0 mi Calm Calm - 0.00 in   Clear
11:35 PM 26.6 °F - 26.6 °F 100% 30.43 in 5.0 mi Calm Calm - 0.00 in   Clear
11:55 PM 26.6 °F - 26.6 °F 100% 30.43 in 5.0 mi Calm Calm - 0.00 in   Clear